When you browse on this site, cookies collect data to enhance your experience and personalize the content and advertising you see.
Visit our Privacy Policy to learn more. By continuing to use the site, you agree to this use of cookies and data.
  • In Latvia
  • List of Countries
  • For 7 days
  • Water Temperature
  • Satellite Maps
  • Weather Map
  • Weather Widgets
  • user-avatar
    Login

    Hourly Weather Santa Fe

    Today, 21 July, Sunday

    Time Temperature Precipitation Wind Pressure Humidity
    00:00 +23°C° 0 mm 2 mps 591 mmHg 38%
    01:00 +23°C° 0 mm 1 mps 592 mmHg 38%
    02:00 +23°C° 0 mm 1 mps 592 mmHg 38%
    03:00 +22°C° 0 mm 1 mps 592 mmHg 40%
    04:00 +22°C° 0 mm 1 mps 591 mmHg 42%
    05:00 +21°C° 0 mm 1 mps 591 mmHg 44%
    06:00 +23°C° 0 mm 1 mps 592 mmHg 40%
    07:00 +24°C° 0 mm 2 mps 593 mmHg 36%
    08:00 +26°C° 0 mm 2 mps 594 mmHg 32%
    09:00 +28°C° 0 mm 2 mps 594 mmHg 29%
    10:00 +29°C° 0 mm 2 mps 595 mmHg 27%
    11:00 +30°C° 0 mm 3 mps 595 mmHg 24%
    12:00 +30°C° 0 mm 3 mps 595 mmHg 24%
    13:00 +30°C° 0 mm 4 mps 594 mmHg 25%
    14:00 +30°C° 0 mm 5 mps 594 mmHg 25%
    15:00 +30°C° 0 mm 5 mps 594 mmHg 27%
    16:00 +29°C° 0 mm 5 mps 594 mmHg 30%
    17:00 +28°C° 0 mm 5 mps 594 mmHg 32%
    18:00 +26°C° 0 mm 5 mps 594 mmHg 37%
    19:00 +23°C° 0 mm 5 mps 593 mmHg 43%
    20:00 +21°C° 0 mm 4 mps 593 mmHg 49%
    21:00 +21°C° 0 mm 4 mps 593 mmHg 50%
    22:00 +20°C° 0 mm 3 mps 593 mmHg 52%
    23:00 +19°C° 0 mm 3 mps 593 mmHg 54%

    Tomorrow, 22 July, Monday

    Time Temperature Precipitation Wind Pressure Humidity
    00:00 +19°C° 0 mm 2 mps 593 mmHg 56%
    01:00 +19°C° 0 mm 2 mps 593 mmHg 57%
    02:00 +18°C° 0 mm 2 mps 593 mmHg 58%
    03:00 +18°C° 0 mm 2 mps 593 mmHg 57%
    04:00 +18°C° 0 mm 2 mps 593 mmHg 56%
    05:00 +18°C° 0 mm 2 mps 594 mmHg 55%
    06:00 +19°C° 0 mm 2 mps 594 mmHg 51%
    07:00 +21°C° 0 mm 2 mps 595 mmHg 47%
    08:00 +24°C° 0 mm 2 mps 596 mmHg 43%
    09:00 +25°C° 0 mm 3 mps 597 mmHg 42%
    10:00 +26°C° 0 mm 4 mps 597 mmHg 40%
    11:00 +27°C° 0 mm 6 mps 597 mmHg 39%
    12:00 +27°C° 0.2 mm 6 mps 597 mmHg 40%
    13:00 +27°C° 0.2 mm 7 mps 597 mmHg 42%
    14:00 +27°C° 0.2 mm 8 mps 597 mmHg 44%
    15:00 +26°C° 0.6 mm 8 mps 596 mmHg 49%
    16:00 +23°C° 0.6 mm 7 mps 596 mmHg 54%
    17:00 +22°C° 0.6 mm 7 mps 595 mmHg 59%
    18:00 +21°C° 2.1 mm 6 mps 595 mmHg 62%
    19:00 +19°C° 2.1 mm 6 mps 595 mmHg 66%
    20:00 +17°C° 2.1 mm 5 mps 595 mmHg 69%
    21:00 +18°C° 0.1 mm 4 mps 595 mmHg 70%
    22:00 +18°C° 0.1 mm 3 mps 596 mmHg 70%
    23:00 +17°C° 0.1 mm 2 mps 596 mmHg 71%

    Day after tomorrow, 23 July, Tuesday

    Time Temperature Precipitation Wind Pressure Humidity
    00:00 +17°C° 0 mm 2 mps 595 mmHg 74%
    01:00 +17°C° 0 mm 2 mps 595 mmHg 77%
    02:00 +16°C° 0 mm 1 mps 595 mmHg 79%
    03:00 +16°C° 0.1 mm 1 mps 595 mmHg 81%
    04:00 +16°C° 0.1 mm 1 mps 595 mmHg 82%
    05:00 +16°C° 0.1 mm 1 mps 594 mmHg 83%
    06:00 +17°C° 0 mm 2 mps 595 mmHg 79%
    07:00 +18°C° 0 mm 2 mps 596 mmHg 75%
    08:00 +19°C° 0 mm 3 mps 596 mmHg 70%
    09:00 +20°C° 0.1 mm 3 mps 597 mmHg 64%
    10:00 +21°C° 0.1 mm 3 mps 597 mmHg 58%
    11:00 +23°C° 0.1 mm 4 mps 597 mmHg 52%
    12:00 +23°C° 0.1 mm 4 mps 597 mmHg 49%
    13:00 +25°C° 0.1 mm 4 mps 596 mmHg 46%
    14:00 +26°C° 0.1 mm 5 mps 596 mmHg 43%
    15:00 +26°C° 0.1 mm 4 mps 596 mmHg 44%
    16:00 +25°C° 0.1 mm 4 mps 595 mmHg 45%
    17:00 +25°C° 0.1 mm 4 mps 595 mmHg 46%
    18:00 +23°C° 0 mm 4 mps 595 mmHg 49%
    19:00 +22°C° 0 mm 3 mps 595 mmHg 51%
    20:00 +21°C° 0 mm 3 mps 595 mmHg 54%
    21:00 +20°C° 0 mm 3 mps 595 mmHg 57%
    22:00 +19°C° 0 mm 2 mps 595 mmHg 60%
    23:00 +19°C° 0 mm 2 mps 595 mmHg 63%

    24 July, Wednesday

    Time Temperature Precipitation Wind Pressure Humidity
    00:00 +18°C° 0 mm 2 mps 594 mmHg 64%
    01:00 +19°C° 0 mm 1 mps 594 mmHg 66%
    02:00 +18°C° 0 mm 1 mps 593 mmHg 68%
    03:00 +18°C° 0 mm 1 mps 593 mmHg 69%
    04:00 +16°C° 0 mm 1 mps 593 mmHg 71%
    05:00 +16°C° 0 mm 1 mps 593 mmHg 72%
    06:00 +18°C° 0 mm 1 mps 593 mmHg 67%
    07:00 +20°C° 0 mm 1 mps 594 mmHg 61%
    08:00 +21°C° 0 mm 2 mps 595 mmHg 55%
    09:00 +23°C° 0 mm 2 mps 595 mmHg 50%
    10:00 +25°C° 0 mm 3 mps 595 mmHg 44%
    11:00 +27°C° 0 mm 4 mps 595 mmHg 39%
    12:00 +28°C° 0 mm 3 mps 595 mmHg 36%
    13:00 +29°C° 0 mm 3 mps 595 mmHg 34%
    14:00 +29°C° 0 mm 3 mps 594 mmHg 31%
    15:00 +29°C° 0 mm 3 mps 594 mmHg 31%
    16:00 +29°C° 0 mm 3 mps 594 mmHg 31%
    17:00 +29°C° 0 mm 3 mps 594 mmHg 31%
    18:00 +28°C° 0.2 mm 3 mps 593 mmHg 35%
    19:00 +26°C° 0.2 mm 3 mps 593 mmHg 40%
    20:00 +25°C° 0.2 mm 3 mps 593 mmHg 45%
    21:00 +24°C° 0.3 mm 3 mps 592 mmHg 51%
    22:00 +21°C° 0.3 mm 3 mps 592 mmHg 57%
    23:00 +20°C° 0.3 mm 3 mps 592 mmHg 64%

    25 July, Thursday

    Time Temperature Precipitation Wind Pressure Humidity
    00:00 +20°C° 0.1 mm 2 mps 591 mmHg 64%
    01:00 +21°C° 0.1 mm 1 mps 591 mmHg 64%
    02:00 +21°C° 0.1 mm 1 mps 591 mmHg 64%
    03:00 +20°C° 0 mm 1 mps 591 mmHg 65%
    04:00 +19°C° 0 mm 2 mps 591 mmHg 67%
    05:00 +18°C° 0 mm 2 mps 590 mmHg 68%
    06:00 +20°C° 0 mm 2 mps 591 mmHg 62%
    07:00 +21°C° 0 mm 2 mps 592 mmHg 55%
    08:00 +24°C° 0 mm 2 mps 593 mmHg 48%
    09:00 +26°C° 0 mm 3 mps 593 mmHg 43%
    10:00 +27°C° 0 mm 3 mps 593 mmHg 39%
    11:00 +29°C° 0 mm 4 mps 594 mmHg 35%
    12:00 +28°C° 0.2 mm 4 mps 593 mmHg 38%
    13:00 +28°C° 0.2 mm 5 mps 593 mmHg 41%
    14:00 +27°C° 0.2 mm 5 mps 592 mmHg 44%
    15:00 +27°C° 0.6 mm 4 mps 592 mmHg 44%
    16:00 +27°C° 0.6 mm 3 mps 592 mmHg 44%
    17:00 +26°C° 0.6 mm 1 mps 592 mmHg 44%
    18:00 +24°C° 0.7 mm 2 mps 592 mmHg 53%
    19:00 +22°C° 0.7 mm 3 mps 592 mmHg 61%
    20:00 +20°C° 0.7 mm 3 mps 592 mmHg 69%
    21:00 +19°C° 1.3 mm 3 mps 591 mmHg 72%
    22:00 +18°C° 1.3 mm 2 mps 591 mmHg 76%
    23:00 +18°C° 1.3 mm 2 mps 591 mmHg 79%

    26 July, Friday

    Time Temperature Precipitation Wind Pressure Humidity
    00:00 +19°C° 0.2 mm 1 mps 591 mmHg 79%
    01:00 +18°C° 0.2 mm 1 mps 591 mmHg 79%
    02:00 +16°C° 0.2 mm 0 mps 591 mmHg 79%
    03:00 +18°C° 0 mm 1 mps 591 mmHg 80%
    04:00 +18°C° 0 mm 1 mps 591 mmHg 81%
    05:00 +18°C° 0 mm 1 mps 591 mmHg 82%
    06:00 +19°C° 0 mm 1 mps 591 mmHg 75%
    07:00 +19°C° 0 mm 2 mps 592 mmHg 69%
    08:00 +21°C° 0 mm 2 mps 593 mmHg 63%
    09:00 +23°C° 0.4 mm 2 mps 593 mmHg 57%
    10:00 +25°C° 0.4 mm 2 mps 593 mmHg 51%
    11:00 +26°C° 0.4 mm 2 mps 594 mmHg 45%
    12:00 +27°C° 0.8 mm 2 mps 594 mmHg 44%
    13:00 +28°C° 0.8 mm 2 mps 593 mmHg 42%
    14:00 +28°C° 0.8 mm 2 mps 593 mmHg 40%
    15:00 +28°C° 0.5 mm 3 mps 593 mmHg 42%
    16:00 +27°C° 0.5 mm 4 mps 593 mmHg 43%
    17:00 +27°C° 0.5 mm 6 mps 593 mmHg 45%
    18:00 +25°C° 0 mm 5 mps 592 mmHg 49%
    19:00 +23°C° 0 mm 5 mps 592 mmHg 53%
    20:00 +21°C° 0 mm 5 mps 592 mmHg 57%
    21:00 +21°C° 0 mm 4 mps 592 mmHg 59%
    22:00 +20°C° 0 mm 3 mps 593 mmHg 62%
    23:00 +21°C° 0 mm 1 mps 593 mmHg 64%
    Show more